Weather in Yandina

Solomon Islands     9°04′16″S   159°13′18″E
temp.,
°C
wind,
m/s
gust,
m/s
humid.,
%
clouds,
%
prec.,
mm/h
press.,
hPa
HPBL,
m
8 march, mon
mon823:00+29e2267100 0.0 1012606
02:00+28ne4474100 0.1 1009713
05:00+28nne5575100 0.2 1009711
08:00+28nne4574100 0.2 1011692
11:00+29nne237197 0.3 1011663
14:00+29ne4470100 0.0 1009835
17:00+29ne5576100 2.9 1009483
20:00+29ne6776100 4.8 1011552
9 march, tue
tue923:00+29ne5575100 5.8 1012607
02:00+28ne4474100 1.8 1010721
05:00+28ne447394 1.8 1009830
08:00+28ne337283 0.0 1012853
11:00+29ese336960 0.0 1012839
14:00+29ese336927 0.0 1009773
17:00+29se347045 0.0 1009797
20:00+29se337067 0.0 1011802
10 march, wed
wed1023:00+29ese236983 0.0 1012709
02:00+29se236999 0.8 1010832
05:00+29ese237099 5.3 1009486
08:00+28e4574100 2.9 1012444
11:00+28ese567399 6.4 1012553
14:00+28e7779100 0.7 1009591
17:00+28e6678100 1.3 1009520
20:00+28ese5675100 0.8 1011660
11 march, thu
thu1123:00+29e4472100 0.9 1012848
02:00+29ese667597 1.2 1010914
05:00+28ene557593 1.5 1009819
08:00+28ne667587 2.3 1012650
11:00+28ne457482 9.3 1012380
14:00+29e0170100 6.6 1010232
17:00+29ese3369100 8.8 1009711
20:00+29ese4471100 0.2 1011768
12 march, fri
fri1223:00+29se337097 0.4 1012731
02:00+29ese226932 1.7 1010737
05:00+29ene226916 1.8 1010794
08:00+28nne44732 3.8 1011479
11:00+29nne33715 4.5 1011744
14:00+29ne226842 0.0 1009770
17:00+29ne226771 0.0 1008871
20:00+29ene227284 1.4 1010570